When you browse on this site, cookies collect data to enhance your experience and personalize the content and advertising you see.
Visit our Privacy Policy to learn more. By continuing to use the site, you agree to this use of cookies and data.
  • en France
  • Liste des pays
  • À 7 jours
  • Température de l'eau
  • Carte satellitaire
  • Carte météo
  • Widgets météo
  • user-avatar
    Se connecter

    Météo par heure à Bunia

    Ce jour, 24 Mai, Vendredi

    Heure Température Précipitation Vent Pression Humidité
    00:00 +20°C° 0.1 mm 1 m/s 655 mmHg 91%
    01:00 +20°C° 0.1 mm 1 m/s 655 mmHg 91%
    02:00 +20°C° 0 mm 1 m/s 655 mmHg 91%
    03:00 +20°C° 0 mm 1 m/s 655 mmHg 90%
    04:00 +20°C° 0 mm 1 m/s 655 mmHg 89%
    05:00 +20°C° 0 mm 1 m/s 655 mmHg 88%
    06:00 +21°C° 0.1 mm 1 m/s 656 mmHg 86%
    07:00 +21°C° 0.1 mm 1 m/s 656 mmHg 85%
    08:00 +21°C° 0 mm 1 m/s 657 mmHg 83%
    09:00 +23°C° 0.1 mm 1 m/s 657 mmHg 75%
    10:00 +25°C° 0.1 mm 1 m/s 657 mmHg 68%
    11:00 +27°C° 0.1 mm 1 m/s 657 mmHg 60%
    12:00 +28°C° 0.2 mm 1 m/s 657 mmHg 57%
    13:00 +29°C° 0.2 mm 2 m/s 657 mmHg 53%
    14:00 +30°C° 0.2 mm 2 m/s 656 mmHg 50%
    15:00 +29°C° 0.8 mm 2 m/s 656 mmHg 58%
    16:00 +27°C° 0.8 mm 2 m/s 655 mmHg 65%
    17:00 +26°C° 0.8 mm 2 m/s 654 mmHg 73%
    18:00 +24°C° 1.4 mm 2 m/s 655 mmHg 78%
    19:00 +23°C° 1.4 mm 1 m/s 655 mmHg 84%
    20:00 +21°C° 1.4 mm 1 m/s 655 mmHg 89%
    21:00 +21°C° 0.6 mm 1 m/s 655 mmHg 91%
    22:00 +21°C° 0.6 mm 1 m/s 656 mmHg 92%
    23:00 +21°C° 0.6 mm 1 m/s 656 mmHg 93%

    Demain, 25 Mai, Samedi

    Heure Température Précipitation Vent Pression Humidité
    00:00 +20°C° 0.1 mm 1 m/s 655 mmHg 93%
    01:00 +20°C° 0.1 mm 1 m/s 655 mmHg 94%
    02:00 +20°C° 0.1 mm 1 m/s 655 mmHg 94%
    03:00 +20°C° 0.1 mm 1 m/s 655 mmHg 94%
    04:00 +20°C° 0.1 mm 1 m/s 655 mmHg 93%
    05:00 +20°C° 0.1 mm 1 m/s 655 mmHg 93%
    06:00 +19°C° 0.1 mm 2 m/s 655 mmHg 92%
    07:00 +20°C° 0.1 mm 2 m/s 656 mmHg 90%
    08:00 +20°C° 0.1 mm 2 m/s 656 mmHg 89%
    09:00 +20°C° 0.7 mm 2 m/s 656 mmHg 89%
    10:00 +21°C° 0.7 mm 2 m/s 656 mmHg 89%
    11:00 +21°C° 0.7 mm 2 m/s 656 mmHg 89%
    12:00 +24°C° 0.2 mm 2 m/s 655 mmHg 81%
    13:00 +25°C° 0.2 mm 2 m/s 655 mmHg 74%
    14:00 +27°C° 0.2 mm 2 m/s 655 mmHg 67%
    15:00 +26°C° 1 mm 2 m/s 655 mmHg 72%
    16:00 +25°C° 1 mm 2 m/s 654 mmHg 77%
    17:00 +25°C° 1 mm 2 m/s 654 mmHg 82%
    18:00 +23°C° 1.4 mm 2 m/s 654 mmHg 86%
    19:00 +22°C° 1.4 mm 1 m/s 654 mmHg 90%
    20:00 +20°C° 1.4 mm 1 m/s 654 mmHg 93%
    21:00 +20°C° 0.1 mm 1 m/s 655 mmHg 93%
    22:00 +20°C° 0.1 mm 1 m/s 655 mmHg 94%
    23:00 +20°C° 0.1 mm 1 m/s 655 mmHg 94%

    Après-demain, 26 Mai, Dimanche

    Heure Température Précipitation Vent Pression Humidité
    00:00 +20°C° 0 mm 1 m/s 655 mmHg 93%
    01:00 +20°C° 0 mm 1 m/s 654 mmHg 93%
    02:00 +20°C° 0 mm 1 m/s 654 mmHg 92%
    03:00 +20°C° 0 mm 1 m/s 654 mmHg 92%
    04:00 +19°C° 0 mm 2 m/s 654 mmHg 91%
    05:00 +19°C° 0 mm 2 m/s 653 mmHg 91%
    06:00 +20°C° 0 mm 2 m/s 654 mmHg 85%
    07:00 +21°C° 0 mm 2 m/s 655 mmHg 78%
    08:00 +24°C° 0 mm 3 m/s 656 mmHg 72%
    09:00 +25°C° 0 mm 3 m/s 656 mmHg 65%
    10:00 +27°C° 0 mm 3 m/s 656 mmHg 57%
    11:00 +29°C° 0 mm 3 m/s 656 mmHg 50%
    12:00 +30°C° 0 mm 3 m/s 656 mmHg 49%
    13:00 +30°C° 0 mm 3 m/s 655 mmHg 47%
    14:00 +31°C° 0 mm 2 m/s 655 mmHg 46%
    15:00 +30°C° 0.3 mm 2 m/s 654 mmHg 53%
    16:00 +28°C° 0.2 mm 2 m/s 654 mmHg 60%
    17:00 +27°C° 0.2 mm 2 m/s 654 mmHg 67%
    18:00 +25°C° 2.9 mm 1 m/s 654 mmHg 74%
    19:00 +23°C° 2.9 mm 1 m/s 654 mmHg 82%
    20:00 +22°C° 2.9 mm 1 m/s 654 mmHg 90%
    21:00 +21°C° 1.3 mm 1 m/s 654 mmHg 91%
    22:00 +21°C° 1.3 mm 1 m/s 655 mmHg 92%
    23:00 +21°C° 1.3 mm 1 m/s 655 mmHg 93%

    27 Mai, Lundi

    Heure Température Précipitation Vent Pression Humidité
    00:00 +20°C° 0.1 mm 1 m/s 654 mmHg 94%
    01:00 +20°C° 0.1 mm 1 m/s 654 mmHg 94%
    02:00 +20°C° 0.1 mm 1 m/s 653 mmHg 94%
    03:00 +20°C° 0 mm 1 m/s 653 mmHg 94%
    04:00 +19°C° 0 mm 1 m/s 653 mmHg 93%
    05:00 +19°C° 0 mm 1 m/s 653 mmHg 92%
    06:00 +21°C° 0 mm 1 m/s 654 mmHg 88%
    07:00 +22°C° 0 mm 1 m/s 655 mmHg 83%
    08:00 +24°C° 0 mm 1 m/s 656 mmHg 78%
    09:00 +25°C° 0.1 mm 2 m/s 656 mmHg 70%
    10:00 +27°C° 0.1 mm 2 m/s 656 mmHg 62%
    11:00 +28°C° 0.1 mm 2 m/s 656 mmHg 54%
    12:00 +29°C° 0.3 mm 2 m/s 655 mmHg 54%
    13:00 +29°C° 0.3 mm 2 m/s 655 mmHg 54%
    14:00 +30°C° 0.3 mm 2 m/s 654 mmHg 55%
    15:00 +29°C° 0.6 mm 2 m/s 654 mmHg 61%
    16:00 +27°C° 0.6 mm 1 m/s 654 mmHg 66%
    17:00 +26°C° 0.6 mm 1 m/s 653 mmHg 72%
    18:00 +24°C° 1.2 mm 2 m/s 654 mmHg 77%
    19:00 +23°C° 1.2 mm 2 m/s 654 mmHg 82%
    20:00 +20°C° 1.2 mm 2 m/s 654 mmHg 87%
    21:00 +20°C° 0.2 mm 2 m/s 654 mmHg 88%
    22:00 +20°C° 0.2 mm 2 m/s 654 mmHg 89%
    23:00 +20°C° 0.2 mm 2 m/s 654 mmHg 91%

    28 Mai, Mardi

    Heure Température Précipitation Vent Pression Humidité
    00:00 +20°C° 0 mm 1 m/s 654 mmHg 92%
    01:00 +20°C° 0 mm 1 m/s 653 mmHg 93%
    02:00 +19°C° 0 mm 1 m/s 653 mmHg 93%
    03:00 +19°C° 0 mm 1 m/s 653 mmHg 93%
    04:00 +19°C° 0 mm 1 m/s 653 mmHg 92%
    05:00 +19°C° 0 mm 1 m/s 653 mmHg 91%
    06:00 +21°C° 0 mm 1 m/s 654 mmHg 84%
    07:00 +23°C° 0 mm 1 m/s 655 mmHg 77%
    08:00 +24°C° 0 mm 1 m/s 656 mmHg 69%
    09:00 +26°C° 0 mm 1 m/s 656 mmHg 62%
    10:00 +28°C° 0 mm 2 m/s 656 mmHg 54%
    11:00 +30°C° 0 mm 2 m/s 656 mmHg 46%
    12:00 +30°C° 0 mm 2 m/s 655 mmHg 45%
    13:00 +31°C° 0 mm 2 m/s 655 mmHg 44%
    14:00 +31°C° 0 mm 2 m/s 654 mmHg 42%
    15:00 +30°C° 0.1 mm 2 m/s 654 mmHg 50%
    16:00 +28°C° 0.1 mm 1 m/s 654 mmHg 58%
    17:00 +26°C° 0.1 mm 1 m/s 653 mmHg 65%
    18:00 +24°C° 1.2 mm 1 m/s 654 mmHg 73%
    19:00 +23°C° 1.2 mm 1 m/s 654 mmHg 81%
    20:00 +21°C° 1.2 mm 1 m/s 654 mmHg 88%
    21:00 +21°C° 0.2 mm 1 m/s 654 mmHg 90%
    22:00 +20°C° 0.2 mm 1 m/s 654 mmHg 91%
    23:00 +20°C° 0.2 mm 1 m/s 655 mmHg 92%

    29 Mai, Mercredi

    Heure Température Précipitation Vent Pression Humidité
    00:00 +20°C° 0.1 mm 1 m/s 654 mmHg 93%
    01:00 +18°C° 0.1 mm 0 m/s 654 mmHg 93%
    02:00 +18°C° 0.1 mm 0 m/s 653 mmHg 94%
    03:00 +17°C° 0 mm 0 m/s 654 mmHg 93%
    04:00 +17°C° 0 mm 0 m/s 654 mmHg 93%
    05:00 +17°C° 0 mm 0 m/s 654 mmHg 93%
    06:00 +19°C° 0 mm 0 m/s 655 mmHg 87%
    07:00 +20°C° 0 mm 0 m/s 656 mmHg 80%
    08:00 +22°C° 0 mm 0 m/s 656 mmHg 74%
    09:00 +26°C° 0 mm 1 m/s 656 mmHg 65%
    10:00 +27°C° 0 mm 1 m/s 656 mmHg 57%
    11:00 +29°C° 0 mm 2 m/s 656 mmHg 48%
    12:00 +30°C° 0 mm 2 m/s 656 mmHg 46%
    13:00 +30°C° 0 mm 2 m/s 655 mmHg 44%
    14:00 +30°C° 0 mm 2 m/s 655 mmHg 43%
    15:00 +29°C° 0 mm 2 m/s 654 mmHg 51%
    16:00 +28°C° 0 mm 1 m/s 654 mmHg 58%
    17:00 +26°C° 0 mm 1 m/s 654 mmHg 66%
    18:00 +25°C° 0.5 mm 1 m/s 654 mmHg 75%
    19:00 +23°C° 0.5 mm 1 m/s 654 mmHg 83%
    20:00 +21°C° 0.5 mm 1 m/s 655 mmHg 92%
    21:00 +21°C° 0.6 mm 1 m/s 655 mmHg 92%
    22:00 +20°C° 0.6 mm 1 m/s 655 mmHg 93%
    23:00 +20°C° 0.6 mm 1 m/s 655 mmHg 94%
    Voir plus